Date,TemperatureHighF,TemperatureAvgF,TemperatureLowF,DewpointHighF,DewpointAvgF,DewpointLowF,HumidityHigh,HumidityAvg,HumidityLow,PressureMaxIn,PressureMinIn,WindSpeedMaxMPH,WindSpeedAvgMPH,GustSpeedMaxMPH,PrecipitationSumIn
2013-1-1,36.9,31.6,19.1,27.2,19.7,9.1,75,62,48,30.02,29.83,29,2,29,0.02
2013-1-2,34.1,20.9,8.9,17.0,10.5,5.3,88,65,47,30.20,29.98,14,1,14,0.01
2013-1-3,26.6,16.4,6.4,14.4,3.3,-4.7,81,57,31,30.23,30.09,13,1,13,0.00
2013-1-4,40.0,29.6,16.7,25.3,20.7,12.4,84,70,51,30.09,29.91,16,1,16,0.05
2013-1-5,44.0,31.9,21.4,26.4,21.5,17.3,86,67,44,30.35,29.96,13,1,13,0.00
2013-1-6,27.9,25.7,21.8,25.9,22.2,18.3,92,86,84,30.32,30.17,1,0,1,0.00
2013-1-7,43.7,32.2,21.2,30.9,24.0,18.2,93,74,47,30.49,30.05,3,0,13,0.00
2013-1-8,48.7,31.8,18.4,32.0,25.4,16.1,95,79,50,30.46,30.36,5,1,25,0.00
2013-1-9,44.6,34.3,21.5,37.4,29.3,19.4,94,82,66,30.48,30.09,14,1,16,0.00
2013-1-10,44.1,41.5,40.0,33.2,30.0,27.2,72,64,53,30.24,30.16,20,2,20,0.00
2013-1-11,38.8,33.2,25.0,36.1,28.4,21.7,94,83,70,30.61,30.28,1,0,5,0.20
2013-1-12,43.5,41.1,37.8,42.2,39.7,36.2,95,95,94,30.30,30.20,4,0,4,0.04
2013-1-13,52.8,46.4,40.9,50.4,44.9,39.6,100,94,90,30.24,30.09,10,0,10,0.01
2013-1-14,62.2,51.3,39.8,53.9,43.7,30.8,95,77,41,30.33,29.96,15,1,15,0.01
2013-1-15,42.1,37.1,32.4,33.3,29.9,26.4,89,76,59,30.39,30.28,8,0,8,0.04
2013-1-16,35.0,32.9,31.0,32.0,30.2,25.9,95,90,70,30.32,29.88,6,0,6,0.04
2013-1-17,43.1,34.9,28.5,33.9,28.8,19.3,95,79,60,30.17,29.93,14,1,14,0.35
2013-1-18,31.7,24.0,17.2,20.2,7.6,0.1,71,50,32,30.56,30.10,17,1,17,0.00
2013-1-19,47.3,37.2,17.2,34.0,26.0,9.2,83,65,48,30.49,29.99,22,2,24,0.02
2013-1-20,55.5,42.8,28.9,35.0,28.0,10.2,76,57,36,30.02,29.65,28,2,28,0.00
2013-1-21,28.9,25.7,19.3,22.5,13.2,7.7,90,61,41,30.19,29.87,9,0,14,0.00
2013-1-22,25.5,20.3,12.6,21.2,8.3,-1.5,92,62,36,30.18,29.83,20,1,20,0.03
2013-1-23,17.9,11.5,6.3,3.2,-3.4,-7.7,68,51,38,30.25,30.16,18,2,18,0.00
2013-1-24,20.7,9.8,2.2,-1.9,-5.6,-7.6,66,50,33,30.33,30.17,15,1,22,0.00
2013-1-25,25.5,17.0,7.9,13.5,-1.2,-6.8,82,45,29,30.42,30.13,10,1,10,0.00
2013-1-26,27.2,18.0,9.5,13.6,5.9,-3.9,89,62,35,30.34,30.08,15,1,15,0.00
2013-1-27,33.2,21.2,12.1,8.0,4.1,0.4,66,48,29,30.56,30.33,19,1,19,0.00
2013-1-28,32.2,25.3,17.5,27.7,15.5,3.3,93,68,39,30.55,30.08,7,0,7,0.00
2013-1-29,34.4,31.4,27.8,32.3,29.5,25.8,94,92,89,30.28,30.08,4,0,4,0.12
2013-1-30,59.9,48.8,33.2,57.0,46.9,31.7,96,93,88,30.24,29.56,28,3,28,0.07
2013-1-31,62.2,48.9,30.7,58.2,38.3,14.6,93,69,39,29.69,29.08,35,4,35,0.44
2013-2-1,33.8,28.4,21.4,17.9,11.4,5.8,62,49,36,30.19,29.69,16,2,16,0.00
2013-2-2,31.4,24.4,15.9,15.9,10.2,6.1,70,55,39,30.35,30.14,15,1,15,0.00
2013-2-3,32.8,26.0,20.1,23.2,19.9,15.2,92,78,63,30.15,29.81,10,0,10,0.00
2013-2-4,32.0,24.4,17.5,20.8,12.5,7.2,86,62,38,30.05,29.81,16,1,16,0.00
2013-2-5,25.9,23.8,20.4,22.5,17.0,11.4,90,75,63,30.11,30.01,5,0,5,0.00
2013-2-6,25.4,25.2,25.0,23.0,22.8,22.3,91,90,89,30.03,29.99,3,0,3,0.00
2013-2-7,33.2,25.1,17.2,14.0,8.6,5.2,69,50,32,30.62,30.39,2,0,12,0.00
2013-2-8,32.6,29.8,0.0,31.0,26.9,0.0,95,88,65,30.56,29.56,13,1,13,0.02
2013-2-9,24.2,19.6,14.2,23.0,17.4,10.5,100,91,85,30.28,29.55,0,0,0,0.00
2013-2-10,39.7,20.9,5.8,28.3,15.3,2.1,89,80,44,30.49,30.28,8,0,8,0.14
2013-2-11,42.6,30.8,11.8,41.3,29.1,9.2,96,93,89,30.45,29.69,9,0,9,0.44
2013-2-12,44.4,38.2,28.4,40.3,29.9,24.5,96,73,53,29.99,29.69,21,1,21,0.05
2013-2-13,45.9,33.5,22.7,28.8,24.9,19.1,88,72,47,29.96,29.76,10,0,11,0.00
2013-2-14,47.1,35.0,26.4,29.0,24.5,20.8,91,68,37,30.09,29.78,12,1,12,0.01
2013-2-15,51.4,36.2,24.2,36.8,30.2,21.4,95,80,54,30.10,30.00,15,1,15,0.01
2013-2-16,36.2,33.4,29.0,32.3,29.5,21.1,95,86,66,30.03,29.75,13,0,13,0.03
2013-2-17,31.0,22.6,16.6,24.1,12.4,2.3,90,67,38,29.79,29.48,31,4,31,0.00
2013-2-18,32.2,19.5,14.6,5.3,2.5,0.9,55,48,29,30.12,29.79,21,3,21,0.03
2013-2-19,48.5,34.0,16.6,41.4,26.2,5.9,94,74,50,30.27,29.67,6,1,23,0.29
2013-2-20,38.9,32.1,25.5,37.3,20.8,11.5,95,64,43,29.88,29.63,5,2,23,0.07
2013-2-21,35.1,28.2,23.3,17.0,15.0,13.1,72,58,44,30.28,29.88,5,2,20,0.00
2013-2-22,40.8,31.3,23.0,25.6,21.8,16.9,83,68,50,30.45,30.28,3,1,11,0.00
2013-2-23,38.3,33.7,29.9,33.0,29.3,25.1,94,84,72,30.41,29.96,4,1,12,0.28
2013-2-24,36.5,34.2,31.7,35.2,32.6,30.1,95,94,92,29.96,29.75,4,1,13,0.58
2013-2-25,41.6,34.8,29.3,34.1,30.8,27.5,94,86,68,30.33,29.96,10,0,10,0.09
2013-2-26,44.9,37.3,32.3,34.6,30.3,27.4,94,77,55,30.41,30.21,10,0,10,0.00
2013-2-27,42.8,40.1,36.2,41.2,38.2,31.2,95,93,82,30.21,29.65,18,1,18,0.77
2013-2-28,46.8,38.0,32.9,41.2,35.4,31.1,95,91,76,29.73,29.60,7,0,7,0.24
2013-3-1,47.6,38.7,31.6,34.4,30.8,27.1,95,74,53,29.76,29.60,8,1,13,0.10
2013-3-2,41.7,37.6,33.9,29.7,27.6,25.9,74,67,58,29.77,29.70,10,1,10,0.01
2013-3-3,44.7,36.2,31.6,30.4,27.6,24.8,88,72,54,29.72,29.63,3,1,13,0.01
2013-3-4,41.2,34.3,28.3,28.0,23.6,20.6,85,65,52,29.82,29.67,5,3,20,0.03
2013-3-5,49.4,37.7,30.1,32.8,27.7,22.2,89,68,49,30.14,29.82,3,1,15,0.00
2013-3-6,40.7,36.8,32.6,35.9,33.4,29.5,93,87,73,30.15,30.07,8,3,28,0.10
2013-3-7,36.2,32.8,30.7,32.7,30.4,28.5,93,91,82,30.07,30.01,7,3,25,0.23
2013-3-8,37.4,32.5,29.9,32.6,29.2,25.7,94,88,66,30.20,29.98,5,2,19,0.11
2013-3-9,48.7,37.0,28.8,31.8,27.0,21.4,92,68,49,30.42,30.20,8,1,14,0.21
2013-3-10,49.9,37.3,28.3,36.0,31.0,26.1,93,79,53,30.49,30.40,11,1,11,0.01
2013-3-11,50.9,42.2,35.7,42.8,37.7,32.2,92,84,69,30.41,30.24,16,2,16,0.00
2013-3-12,54.0,49.4,40.7,52.1,47.3,38.8,95,92,86,30.24,29.81,18,3,24,0.53
2013-3-13,53.6,43.7,30.3,50.4,32.4,22.9,95,67,35,29.87,29.78,14,2,14,0.13
2013-3-14,35.0,32.1,29.6,26.6,25.7,24.8,83,77,70,29.86,29.85,6,0,7,0.00
2013-3-15,42.9,31.4,21.3,28.0,16.0,8.6,80,55,27,29.97,29.74,3,1,14,0.00
2013-3-16,41.7,35.4,26.5,28.1,17.9,10.4,83,51,30,29.95,29.78,8,1,11,0.00
2013-3-17,40.2,31.6,23.2,20.6,14.4,4.7,76,51,25,30.39,29.94,18,1,18,0.00
2013-3-18,37.2,28.9,19.1,26.5,11.6,2.1,85,49,31,30.54,30.30,12,1,12,0.00
2013-3-19,37.7,33.4,29.1,35.9,31.4,26.4,94,92,85,30.30,29.65,14,1,14,0.55
2013-3-20,42.2,32.8,25.7,29.0,22.9,19.3,90,68,44,29.90,29.77,15,1,15,0.22
2013-3-21,38.6,31.8,24.1,28.5,24.3,20.2,88,74,57,29.91,29.68,9,0,9,0.00
2013-3-22,42.5,34.6,27.2,27.6,20.5,17.2,86,57,39,29.85,29.69,16,2,16,0.00
2013-3-23,45.2,36.1,28.7,25.5,21.5,18.5,78,57,37,29.89,29.75,22,2,22,0.00
2013-3-24,52.1,39.3,29.2,28.9,24.3,19.8,80,56,35,29.92,29.79,14,1,14,0.00
2013-3-25,47.0,37.4,29.7,33.2,29.3,25.9,89,74,47,29.84,29.56,20,2,20,0.01
2013-3-26,37.2,36.0,35.5,31.9,31.0,29.0,86,82,77,29.62,29.59,7,1,9,0.00
2013-3-28,48.9,42.5,36.9,35.4,33.0,30.5,89,70,51,30.10,29.93,3,1,10,0.01
2013-3-29,58.4,47.4,36.6,36.4,32.1,28.9,83,58,34,30.13,30.04,2,1,12,0.00
2013-3-30,60.0,47.5,35.2,33.5,26.8,19.1,75,48,21,30.18,30.08,4,1,14,0.00
2013-3-31,58.0,44.1,27.6,43.8,30.1,23.4,92,62,29,30.20,29.81,6,2,20,0.06
2013-4-1,61.3,47.7,35.2,47.0,39.1,14.9,94,74,40,29.88,29.60,6,2,23,0.28
2013-4-2,41.9,34.2,26.9,19.5,16.1,10.1,71,48,29,30.06,29.89,5,2,19,0.00
2013-4-3,47.0,36.8,29.3,18.2,15.9,12.7,60,43,27,30.27,30.04,9,2,23,0.00
2013-4-4,57.7,40.8,26.3,31.2,20.3,13.5,77,47,21,30.41,30.16,9,1,16,0.00
2013-4-5,62.6,46.8,37.7,37.0,29.5,20.5,78,55,24,30.17,29.70,19,2,19,0.00
2013-4-6,49.9,39.5,29.4,27.3,16.5,7.2,74,42,18,30.41,29.96,17,1,17,0.00
2013-4-7,53.2,41.3,25.2,42.7,30.9,21.4,89,68,37,30.42,30.11,27,3,27,0.00
2013-4-8,69.3,53.6,40.3,45.0,42.2,38.2,95,68,33,30.18,30.05,12,1,12,0.00
2013-4-9,75.6,58.6,47.0,56.3,45.5,40.5,94,66,32,30.17,29.92,11,2,16,0.00
2013-4-10,68.2,52.7,45.2,51.4,45.9,43.2,93,79,53,30.08,29.92,8,1,14,0.29
2013-4-11,55.2,48.9,46.0,46.9,43.0,35.1,94,81,60,30.20,29.89,11,1,11,0.01
2013-4-12,45.9,40.6,38.3,37.5,35.3,30.1,93,82,64,30.22,29.83,16,2,16,0.39
2013-4-13,56.2,45.1,36.9,42.2,36.9,34.0,93,75,48,30.02,29.80,14,1,14,0.02
2013-4-14,54.4,45.3,36.6,40.3,33.0,26.4,89,65,38,30.30,30.00,16,1,16,0.00
2013-4-15,55.8,44.6,32.8,39.1,33.2,27.7,86,66,43,30.48,30.30,11,1,13,0.00
2013-4-16,60.0,49.7,34.4,49.5,42.7,32.6,95,78,59,30.49,30.17,21,3,21,0.00
2013-4-17,70.0,58.3,42.8,52.6,42.6,29.6,88,60,24,30.41,30.15,14,1,14,0.00
2013-4-18,60.4,49.5,36.2,46.7,38.0,30.3,95,68,37,30.49,30.23,20,3,20,0.00
2013-4-19,70.8,61.5,51.5,62.5,57.6,47.0,95,87,73,30.24,29.77,28,4,28,0.01
2013-4-20,63.7,54.8,45.5,61.3,44.0,27.7,93,69,42,30.30,29.70,21,2,21,0.28
2013-4-21,56.9,44.2,33.4,32.6,26.2,21.3,82,51,28,30.75,30.30,18,2,18,0.05
2013-4-22,53.9,43.0,32.0,36.2,31.9,27.0,91,67,38,30.81,30.65,16,2,16,0.00
2013-4-23,43.5,41.6,39.3,41.1,38.2,32.0,93,88,73,30.66,30.16,16,2,16,0.02
2013-4-24,42.5,42.2,41.8,40.5,40.1,39.9,93,93,92,30.16,30.04,13,2,13,0.00
2013-4-26,63.5,50.8,37.4,42.5,35.9,28.9,85,59,35,30.49,30.34,6,1,15,0.00
2013-4-27,61.6,49.0,35.3,43.8,38.0,33.5,95,69,40,30.50,30.39,5,1,14,0.00
2013-4-28,65.3,51.7,35.4,44.2,36.3,32.7,94,61,32,30.42,30.33,8,2,21,0.00
2013-4-29,64.7,54.2,44.0,47.1,39.1,29.9,94,61,27,30.36,30.30,7,2,15,0.00
2013-4-30,68.5,53.5,37.7,41.3,33.3,26.5,86,51,24,30.43,30.33,6,1,14,0.01
2013-5-1,71.0,54.0,35.2,47.1,39.1,31.6,89,61,30,30.55,30.44,3,1,14,0.00
2013-5-2,77.8,59.0,39.4,49.2,42.6,37.5,95,59,28,30.55,30.41,14,1,14,0.00
2013-5-3,61.8,50.8,41.4,46.2,41.5,37.6,88,71,55,30.58,30.45,16,1,16,0.00
2013-5-4,63.0,50.2,37.3,46.1,38.6,32.9,95,68,34,30.45,30.36,17,1,17,0.03
2013-5-5,64.6,49.9,34.9,47.1,40.5,33.0,95,73,42,30.40,30.31,11,1,11,0.02
2013-5-6,69.7,54.4,43.0,53.8,46.5,39.7,91,76,49,30.37,30.23,14,1,14,0.03
2013-5-7,73.5,59.5,44.1,61.5,52.5,42.2,95,79,55,30.27,30.18,15,1,15,0.03
2013-5-8,71.0,62.0,54.0,63.1,58.3,51.9,95,88,73,30.27,30.11,19,2,19,0.14
2013-5-9,69.5,60.6,57.5,62.2,57.9,56.0,95,91,69,30.12,29.94,10,0,10,0.11
2013-5-10,79.8,66.3,52.7,61.1,56.4,51.0,96,73,43,30.03,29.96,11,0,11,0.03
2013-5-11,71.6,62.3,57.3,61.6,58.6,54.9,94,88,69,30.01,29.78,22,2,22,0.01
2013-5-12,72.5,61.2,47.4,61.3,53.4,32.2,95,78,43,29.90,29.64,4,1,14,0.01
2013-5-13,61.6,51.7,38.0,37.6,32.6,28.7,85,50,32,30.11,29.91,14,1,14,0.00
2013-5-14,60.0,49.4,37.9,36.0,32.8,28.9,80,55,34,30.14,30.05,13,1,13,0.00
2013-5-15,64.2,51.4,35.4,52.6,41.7,32.4,92,72,36,30.14,29.77,23,2,23,0.01
2013-5-16,83.0,66.6,47.5,51.7,47.3,39.4,95,56,23,29.88,29.71,18,1,18,0.00
2013-5-17,71.9,59.0,47.0,50.2,44.9,41.1,90,62,36,30.30,29.88,13,1,13,0.00
2013-5-18,47.8,44.6,41.9,43.5,42.0,39.8,93,91,85,30.35,30.30,1,0,1,0.00
2013-5-20,44.9,42.0,0.0,41.3,39.0,0.0,94,89,82,29.85,29.83,11,2,14,0.00
2013-5-21,60.5,51.3,39.9,46.8,41.3,37.8,97,70,48,30.22,29.86,16,2,20,0.00
2013-5-22,74.1,59.3,41.6,47.5,42.5,37.2,95,59,27,30.29,30.15,13,1,15,0.00
2013-5-23,46.3,45.0,44.0,44.7,43.4,42.4,94,94,94,30.30,30.29,0,0,0,0.00
2013-5-24,58.5,58.4,58.3,57.1,56.9,56.6,95,94,94,30.20,30.19,2,0,6,0.00
2013-5-25,63.4,62.8,62.3,62.0,61.4,60.8,95,95,95,30.15,30.14,0,0,0,0.00
2013-5-29,74.0,64.2,49.5,68.5,60.4,42.6,95,88,70,29.98,29.85,2,0,8,0.00
2013-5-30,73.4,63.3,50.8,52.8,48.9,44.1,91,62,41,30.19,29.98,9,1,14,0.00
2013-7-2,92.5,82.0,75.8,79.1,74.2,72.0,90,78,61,30.02,29.97,7,0,8,0.01
2013-7-3,75.8,74.0,72.6,73.0,71.7,70.5,94,92,90,30.01,29.98,1,0,4,0.00
2013-8-28,75.5,72.9,70.8,73.3,70.8,67.9,95,93,89,29.86,29.79,8,0,15,0.02
2013-8-29,71.4,70.9,69.3,69.9,69.1,67.5,95,94,93,29.83,29.77,4,0,4,0.00
2013-8-30,59.0,58.1,57.3,56.9,56.2,55.4,94,93,92,29.95,29.90,3,0,6,0.00
2013-8-31,59.4,58.8,58.2,57.7,57.1,56.5,95,94,93,29.98,29.96,0,0,1,0.00
2013-12-30,24.1,22.2,20.2,13.0,12.2,11.2,68,65,61,30.23,30.21,7,0,7,0.25
2013-12-31,27.7,20.2,16.1,17.6,10.5,4.0,92,67,45,30.29,30.11,9,0,9,0.00
2014-1-1,30.7,22.5,12.3,15.5,11.8,7.7,86,64,42,30.47,30.29,13,0,13,0.01
2014-1-2,23.6,16.3,3.6,18.9,12.9,-0.2,92,86,61,30.43,29.86,19,1,19,0.00